Blythe, CA

2:50 AM PST on January 22, 2018 (GMT -0800)
Blythe

Weather History for KBLH - February, 2013

Change the Weather History Date:

Wednesday, February 20, 2013

  Actual Average Record
Temperature  
Mean Temperature 49 °F -  
Max Temperature 55 °F 69 °F 84 °F (1977)
Min Temperature 42 °F 46 °F 32 °F (1990)
Degree Days  
Heating Degree Days 16    
Moisture  
Dew Point 34 °F    
Average Humidity 57    
Maximum Humidity 80    
Minimum Humidity 31    
Precipitation  
Precipitation 0.01 in - - ()
Sea Level Pressure  
Sea Level Pressure 29.75 in    
Wind  
Wind Speed 13 mph (West)    
Max Wind Speed 24 mph    
Max Gust Speed 30 mph    
Visibility 10 miles    
Events Rain    
Averages and records for this station are not official NWS values.
T = Trace of Precipitation, MM = Missing Value Source: NWS Daily Summary

Daily Weather History Graph

Daily Weather History Graph

Search for Another Location

Airport or City:

Trip Planner

Search our weather history database for the weather conditions in past years. The results will help you decide how hot, cold, wet, or windy it might be!

Date:

Astronomy

Feb. 20, 2013 Rise Set
Actual Time 6:17 AM PST 5:28 PM PST
Civil Twilight 5:52 AM PST 5:53 PM PST
Nautical Twilight 5:23 AM PST 6:22 PM PST
Astronomical Twilight 4:54 AM PST 6:51 PM PST
Moon 1:01 PM PST (2/20) 2:32 AM PST (2/20)
Length of Visible Light 12h 01m
Length of Day
11h 10m
Waxing Gibbous, 77% of the Moon is Illuminated
Feb 20
Waxing Gibbous
Feb 25
Full
Mar 4
Last Quarter
Mar 11
New
Mar 19
First Quarter

Hourly Weather History & Observations

Time (PST) Temp. Windchill Dew Point Humidity Pressure Visibility Wind Dir Wind Speed Gust Speed Precip Events Conditions
12:52 AM 52.0 °F - 32.0 °F 47% 29.65 in 10.0 mi SW 19.6 mph 25.3 mph N/A   Clear
1:52 AM 52.0 °F - 33.1 °F 49% 29.64 in 10.0 mi SW 24.2 mph 29.9 mph N/A   Mostly Cloudy
2:52 AM 51.1 °F - 34.0 °F 52% 29.62 in 10.0 mi WSW 11.5 mph - 0.00 in   Overcast
3:52 AM 48.9 °F - 39.9 °F 71% 29.63 in 10.0 mi SSW 19.6 mph 26.5 mph 0.00 in Rain Light Rain
4:52 AM 46.9 °F - 41.0 °F 80% 29.65 in 10.0 mi South 10.4 mph - 0.01 in   Overcast
5:52 AM 46.0 °F 39.9 °F 39.9 °F 79% 29.65 in 10.0 mi South 13.8 mph - N/A   Scattered Clouds
6:52 AM 48.0 °F - 37.0 °F 66% 29.67 in 10.0 mi SW 13.8 mph - N/A   Clear
7:52 AM 48.9 °F - 37.9 °F 66% 29.70 in 10.0 mi NNW 6.9 mph - N/A   Overcast
8:52 AM 48.9 °F - 37.9 °F 66% 29.72 in 10.0 mi NNE 6.9 mph - N/A   Partly Cloudy
9:52 AM 51.1 °F - 35.1 °F 54% 29.73 in 10.0 mi Calm Calm - N/A   Partly Cloudy
10:52 AM 55.0 °F - 25.0 °F 31% 29.73 in 10.0 mi West 17.3 mph 21.9 mph N/A   Overcast
11:52 AM 54.0 °F - 26.1 °F 34% 29.74 in 10.0 mi NW 15.0 mph 21.9 mph N/A   Overcast
12:52 PM 55.0 °F - 30.0 °F 38% 29.75 in 10.0 mi WNW 15.0 mph 24.2 mph N/A   Scattered Clouds
1:52 PM 54.0 °F - 30.0 °F 40% 29.76 in 10.0 mi NW 10.4 mph - N/A   Overcast
3:52 PM 55.9 °F - 30.9 °F 39% 29.77 in 10.0 mi Variable 4.6 mph - N/A   Scattered Clouds
4:52 PM 55.0 °F - 32.0 °F 42% 29.79 in 10.0 mi Calm Calm - N/A   Clear
5:52 PM 51.1 °F - 34.0 °F 52% 29.83 in 10.0 mi ESE 6.9 mph - N/A   Clear
7:52 PM 46.9 °F - 34.0 °F 61% 29.87 in 10.0 mi ESE 4.6 mph - N/A   Clear
8:52 PM 48.0 °F - 34.0 °F 58% 29.88 in 10.0 mi Calm Calm - N/A   Clear
9:52 PM 43.0 °F 40.3 °F 35.1 °F 74% 29.90 in 10.0 mi North 4.6 mph - N/A   Clear
10:52 PM 43.0 °F 39.5 °F 35.1 °F 74% 29.91 in 10.0 mi NNW 5.8 mph - N/A   Clear
11:52 PM 42.1 °F 39.2 °F 35.1 °F 76% 29.91 in 10.0 mi NNW 4.6 mph - N/A   Clear